Regional Weather Roundup
Issued by NWS

Home | Current Version | Previous Version | Text Only | Print | Product List | Glossary On
Versions: 1 2 3 4 5 6 7 8 9 10 11 12 13 14 15 16 17 18 19 20 21 22 23 24 25 26 27 28 29 30 31 32 33 34 35 36 37 38 39 40 41 42 43 44 45 46 47 48 49 50
000
ASCA44 KEWX 051220
RWRMX

LATIN AMERICA AND CARIBBEAN REGIONAL WEATHER ROUNDUP
NATIONAL WEATHER SERVICE AUSTIN/SAN ANTONIO TX
600 AM CST MON DEC 05 2016

NOTE: "FAIR" INDICATED FEW OR NO CLOUDS BELOW 12,000 FEET WITH NO
SIGNIFICANT WEATHER AND/OR OBSTRUCTIONS TO VISIBILITY.

BAJA CALIFORNIA

CITY           SKY/WX    TMP DP  RH WIND       PRES   REMARKS
S.J. DEL CABO    N/A    N/A N/A N/A MISG        N/A
TIJUANA        PTCLDY    48  32  53 CALM      29.98F

NORTHWESTERN MEXICO

CITY           SKY/WX    TMP DP  RH WIND       PRES   REMARKS
HERMOSILLO     CLEAR     48  41  76 E5        29.96  WCI  46

NORTHEASTERN MEXICO

CITY           SKY/WX    TMP DP  RH WIND       PRES   REMARKS
CHIHUAHUA      MOCLDY    41  41 100 CALM      30.01
MONCLOVA         N/A    N/A N/A N/A MISG        N/A
MONTERREY      PTCLDY    48  45  87 CALM      29.90F
REYNOSA        CLOUDY    52  48  87 W5        29.89
SALTILLO       MOCLDY    48  45  87 CALM      30.01
CD. VICTORIA     N/A    N/A N/A N/A MISG        N/A

WESTERN MEXICO

CITY           SKY/WX    TMP DP  RH WIND       PRES   REMARKS
AGUASCALIENTES CLEAR     45  43  93 S5        30.09  WCI  42
COLIMA         PTCLDY    64  63  94 CALM      30.01
DEL BAJIO      PTCLDY    46  45  93 CALM      30.13S
GUADALAJARA    CLEAR     46  45  93 NW3       30.06
MAZATLAN       CLEAR     50  48  93 NE3       29.95F
P. VALLARTA    PTCLDY    61  61 100 E2          N/A
URUAPAN          N/A    N/A N/A N/A MISG        N/A
ZACATECAS      CLEAR     43  34  70 SW22      30.05S WCI  34

CENTRAL MEXICO

CITY           SKY/WX    TMP DP  RH WIND       PRES   REMARKS
CUERNAVACA       N/A    N/A N/A N/A MISG        N/A
MEXICO CITY    PTCLDY    57  41  54 SE13      30.19R
MORELIA        PTCLDY    57  50  77 SE14      30.08
POZA RICA        N/A    N/A N/A N/A MISG        N/A
QUERETARO      PTCLDY    46  43  87 NW5       30.12S WCI  44
S. LUIS POTOSI MOCLDY    55  43  62 S9        30.03R
TAMPICO        CLOUDY    66  61  82 N14       29.83
TOLUCA         PTCLDY    39  36  87 W5        30.25S WCI  36

SOUTHERN MEXICO

CITY           SKY/WX    TMP DP  RH WIND       PRES   REMARKS
ACAPULCO       MOCLDY    75  72  88 NW7       29.84R
B. DE HUATULCO   N/A    N/A N/A N/A MISG        N/A
OAXACA         CLEAR     52  48  87 CALM      30.13
P. ESCONDIDO     N/A    N/A N/A N/A MISG        N/A
VERACRUZ       CLOUDY    77  75  94 NW5       29.77

YUCATAN PENINSULA

CITY           SKY/WX    TMP DP  RH WIND       PRES   REMARKS
CAMPECHE       CLEAR     75  73  94 SE12      29.78
CANCUN         PTCLDY    81  77  89 SE10      29.86R
CHETUMAL       PTCLDY    81  77  89 SE9       29.82
CD. DEL CARMEN CLEAR     79  75  89 SE8       29.78
COZUMEL        PTCLDY    81  77  89 SE6       29.84R
MERIDA         CLOUDY    77  75  94 SE7       29.83R
MINATITLAN     CLEAR     75  68  78 S7        29.71
TAPACHULA      PTCLDY    70  68  94 CALM      29.84S
TUX. GUTIERREZ CLEAR     57  57 100 CALM      29.94
VILLAHERMOSA   PTCLDY    70  70 100 CALM      29.79  FOG

CENTRAL AMERICA

CITY           SKY/WX    TMP DP  RH WIND       PRES   REMARKS
BELIZE CITY    PTCLDY    79  77  94 CALM      29.84R
MANAGUA        PTSUNNY   75  73  94 SE5       29.86R

CARIBBEAN

CITY           SKY/WX    TMP DP  RH WIND       PRES   REMARKS
ARUBA          MOSUNNY   84  73  70 E14       29.92R HX  91
CURACAO        MOSUNNY   82  73  74 E13       29.94R
KINGSTON       PTCLDY    77  75  94 N6        29.92S
NASSAU         PTCLDY    73  72  94 E5        30.06
SAN JUAN       PTSUNNY   79  73  83 SE5       30.01R
SANTO DOMINGO  PTSUNNY   75  73  94 CALM      29.97S
ST. CROIX      MOSUNNY   79  72  78 NE5       30.01
ST. KITTS      MOSUNNY   81  70  69 N7        30.00R
ST. THOMAS     LGT RAIN  77  75  94 N5        30.00  FOG

$$




USA.gov is the U.S. government's official web portal to all federal, state and local government web resources and services.